11:46
Airports
History
Links
Donate
Help keep this website running!
PayPal
Bitcoin
This page is community maintained. The information is intended for PC simulator navigation or reference.
Always use approved charts for navigation.
LFNV
Valreas Visan
Valreas Visan (LFNV)
Visan, Provence-Alpes-Côte d'Azur, France (84820)
4
Lat/Lng:44° 20' 13" N / 4° 54' 29" E
44.336945 / 4.908056
Elevation:472'ft / 144mMSL
ID / ICAO:LFNV
Runways:1
Longest:(20-02) 1,030.0m / 3,379ft Grass
Distance To
Airport ID:
Nearby VORs <50NM
Nearby NDBs
Nearby WeatherUpdated 08-20-17 11:30 GMT
Nearby weather at LFMO, Caritat AB located 13.7 nautical miles from LFNV
Altimeter: 30.09
Visibility: 6.2 statute miles
Wind: 27 knots (340°)
Temp: 26°c 79°f
Humidity: 27.8%

METAR: LFMO 201130Z AUTO 34027KT CAVOK 26/06 Q1019 BECMG 35025G35KT

(Powered by phpweather)
Runway 20 / 02
Dimensions:1030 x 50m 3379' x 164'ft
Surface:Grass
Edge Lights:Medium intensity
Runway 20 [A]Runway 02 [B]
Heading:200°TH 020°TH
Lat:
Lng:
44° 20' 28.68"N
4° 54' 36.98"E
44° 19' 57.32"N
4° 54' 21.02"E
User Notes and Comments
Google Map
Nearby Airports
(U) Orange Plan de Dieu 4.3 NM
LF08 SSE 148°
4 Pierrelate 10.4 NM
LFHD WNW 295°
(U) PLAN DE DIEU 10.8 NM
LF51 S 177°
(C) Plan de Dieu 10.9 NM
8422 S 176°
4 Pont-St Esprit 13.5 NM
LFND WSW 249°
(C) Caritat AB 13.7 NM
LFMO (WX) S 188°
(C) Montelimar Ancone 18.8 NM
LFLQ (WX) NNW 333°
VFR Chart
Flight Planning at SkyVector.com